| time (UTC) | temp C | wind direction | speed KPH | gust KPH | rain 1hr cm | rain 24hr cm | rain mn cm | humidity % | barometer mb |
| 20260509201310 | 15 | 289 | 1.6 | 16.1 | 0.00 | 0.00 | 0.00 | 43 | 1016.5 |
| 20260509195308 | 15 | 1 | 0.0 | 9.7 | 0.00 | 0.00 | 0.00 | 45 | 1016.1 |
| 20260509193309 | 15 | 256 | 0.0 | 12.9 | 0.00 | 0.00 | 0.00 | 44 | 1016.2 |
| 20260509191309 | 15 | 163 | 1.6 | 14.5 | 0.00 | 0.00 | 0.00 | 47 | 1015.5 |
| 20260509185309 | 15 | 331 | 0.0 | 8.0 | 0.00 | 0.00 | 0.00 | 48 | 1015.6 |
| 20260509183308 | 15 | 94 | 3.2 | 9.7 | 0.00 | 0.00 | 0.00 | 49 | 1015.3 |
| 20260509181309 | 15 | 127 | 0.0 | 9.7 | 0.00 | 0.00 | 0.00 | 50 | 1015.0 |
| 20260509175308 | 15 | 33 | 0.0 | 8.0 | 0.00 | 0.00 | 0.00 | 54 | 1015.1 |
| 20260509173308 | 15 | 12 | 0.0 | 9.7 | 0.00 | 0.00 | 0.00 | 58 | 1015.0 |
| 20260509171308 | 15 | 10 | 1.6 | 8.0 | 0.00 | 0.00 | 0.00 | 70 | 1014.8 |
| 20260509165309 | 15 | 116 | 1.6 | 9.7 | 0.00 | 0.00 | 0.00 | 70 | 1014.7 |
| 20260509163309 | 15 | 334 | 3.2 | 9.7 | 0.00 | 0.00 | 0.00 | 70 | 1014.7 |
| 20260509161310 | 14 | 355 | 0.0 | 9.7 | 0.00 | 0.00 | 0.00 | 76 | 1014.4 |
| 20260509155309 | 13 | 7 | 3.2 | 11.3 | 0.00 | 0.00 | 0.00 | 81 | 1014.4 |
| 20260509153309 | 13 | 1 | 4.8 | 9.7 | 0.00 | 0.00 | 0.00 | 84 | 1014.4 |
| 20260509151310 | 13 | 16 | 6.4 | 9.7 | 0.00 | 0.00 | 0.00 | 84 | 1014.6 |
| 20260509145309 | 13 | 10 | 1.6 | 6.4 | 0.00 | 0.00 | 0.00 | 83 | 1014.7 |
| 20260509143309 | 13 | 1 | 4.8 | 8.0 | 0.00 | 0.00 | 0.00 | 83 | 1014.6 |
| 20260509141309 | 12 | 1 | 3.2 | 6.4 | 0.00 | 0.00 | 0.00 | 81 | 1014.3 |
| 20260509135309 | 13 | 0 | 0.0 | 0.0 | 0.00 | 0.00 | 0.00 | 80 | 1014.1 |
| 20260509133309 | 13 | 0 | 0.0 | 0.0 | 0.00 | 0.00 | 0.00 | 79 | 1013.9 |
| 20260509131308 | 13 | 0 | 0.0 | 0.0 | 0.00 | 0.00 | 0.00 | 79 | 1013.9 |
| 20260509125308 | 13 | 0 | 0.0 | 0.0 | 0.00 | 0.00 | 0.00 | 79 | 1013.9 |
| 20260509123310 | 13 | 229 | 0.0 | 4.8 | 0.00 | 0.00 | 0.00 | 78 | 1013.7 |
| 20260509121309 | 14 | 53 | 0.0 | 0.0 | 0.00 | 0.00 | 0.00 | 76 | 1013.5 |
| 20260509115310 | 14 | 0 | 0.0 | 0.0 | 0.00 | 0.00 | 0.00 | 75 | 1013.6 |
| 20260509113309 | 15 | 0 | 0.0 | 0.0 | 0.00 | 0.00 | 0.00 | 72 | 1013.5 |
| 20260509111309 | 15 | 1 | 0.0 | 1.6 | 0.00 | 0.00 | 0.00 | 71 | 1013.2 |
| 20260509105309 | 16 | 0 | 0.0 | 0.0 | 0.00 | 0.00 | 0.00 | 67 | 1013.1 |
| 20260509103308 | 17 | 339 | 0.0 | 3.2 | 0.00 | 0.00 | 0.00 | 64 | 1012.7 |
| 20260509101308 | 17 | 317 | 0.0 | 1.6 | 0.00 | 0.00 | 0.00 | 61 | 1012.5 |
| 20260509095310 | 18 | 1 | 0.0 | 4.8 | 0.00 | 0.00 | 0.00 | 59 | 1012.3 |
| 20260509093309 | 19 | 290 | 0.0 | 4.8 | 0.00 | 0.00 | 0.00 | 57 | 1012.1 |
| 20260509091309 | 20 | 323 | 0.0 | 9.7 | 0.00 | 0.00 | 0.00 | 55 | 1011.9 |
| 20260509085307 | 20 | 317 | 1.6 | 6.4 | 0.00 | 0.00 | 0.00 | 54 | 1011.6 |
| 20260509083308 | 20 | 281 | 1.6 | 8.0 | 0.00 | 0.00 | 0.00 | 55 | 1011.1 |
| 20260509081309 | 21 | 311 | 3.2 | 11.3 | 0.00 | 0.00 | 0.00 | 55 | 1010.8 |
| 20260509075308 | 21 | 292 | 4.8 | 14.5 | 0.00 | 0.00 | 0.00 | 50 | 1010.7 |